LEMUR-2-MONSON (42839 NORAD) Tracking and Keplerian Element Data

This shows tracking and keplerian element data for the satellite.

Feedback or suggestion? Click here.




ElementValue
Catalog42839
NameLEMUR-2-MONSON
Epoch Orbit3206
Epoch Day45.45915466
Epoch Year2018
RAAN312.5433
Inclination97.6072
Eccentricity0.0011639
Argument of Perigee243.0096
Mean Anonmoly116.9935
Mean Motion14.91347745
Decay Rate3.1E-06
L11 42839U 17042Q 18045.45915466 .00000310 00000-0 36458-4 0 9992
L22 42839 97.6072 312.5433 0011639 243.0096 116.9935 14.91347745 32064

Live tracking and technical data element details for LEMUR-2-MONSON (NORAD 42839). LEMUR-2-MONSON can be tracked NOW for your location showing map with azimuth and elevation plus other details from your city location.

Track the satellite on the map from your city or location and see movement details for azimuth, elevation, latitude, longitude, range, height, and movement on the map or in text.







IsCatalogInMostPopularTable: catalog: 42839, numindb: 121
Update: records affected: 1



GetName: 42839 LEMUR-2-MONSON

Hit Count: updated at: Mon, 19 Nov 2018 11:19:21 GMT